Regional Weather Roundup
Issued by NWS

Home | Current Version | Previous Version | Graphics & Text | Print | Product List | Glossary On
Versions: 1 2 3 4 5 6 7 8 9 10 11 12 13 14 15 16 17 18 19 20 21 22 23 24 25 26 27 28 29 30 31 32 33 34 35 36 37 38 39 40 41 42 43 44 45 46 47 48 49 50
000
ASUS43 KBIS 311510
RWRND

NORTH DAKOTA REGIONAL WEATHER ROUNDUP
NATIONAL WEATHER SERVICE BISMARCK ND
1000 AM CDT THU JUL 31 2014

NOTE: "FAIR" INDICATES FEW OR NO CLOUDS BELOW 12,000 FEET WITH NO
SIGNIFICANT WEATHER AND/OR OBSTRUCTIONS TO VISIBILITY.


NDZ001>003-009>011-017-311600-
NORTHWEST NORTH DAKOTA

CITY           SKY/WX    TMP DP  RH WIND       PRES   REMARKS
WILLISTON      PTSUNNY   69  57  65 S5        30.08S
MINOT          SUNNY     72  55  55 NE3       30.08S
MINOT AFB      SUNNY     71  56  59 VRB2      30.08S
$$

NDZ018>021-031>035-040>046-311600-
SOUTHWEST NORTH DAKOTA

CITY           SKY/WX    TMP DP  RH WIND       PRES   REMARKS
BISMARCK       SUNNY     72  58  61 S3        30.11S
DICKINSON      PTSUNNY   72  58  61 S9        30.10S
GARRISON         N/A     72  62  71 VRB5      30.09S
HETTINGER ARPT PTSUNNY   71  59  65 W6        30.14F
$$

NDZ004>008-012>016-024-026-027-054-311600-
NORTHEAST NORTH DAKOTA

CITY           SKY/WX    TMP DP  RH WIND       PRES   REMARKS
GRAND FORKS    SUNNY     77  57  50 NW7       30.02S
GRND FRKS AFB  SUNNY     72  64  75 N5        30.04S
DEVILS LAKE    SUNNY     70  59  68 NW5       30.06S
$$

NDZ022-023-025-028>030-036>039-047>053-311600-
SOUTHEAST NORTH DAKOTA

CITY           SKY/WX    TMP DP  RH WIND       PRES   REMARKS
FARGO          SUNNY     73  59  61 CALM      30.04S
JAMESTOWN      SUNNY     73  59  61 NW6       30.08S
$$



USA.gov is the U.S. government's official web portal to all federal, state and local government web resources and services.